Regional Weather Roundup
Issued by NWS

Home | Current Version | Previous Version | Graphics & Text | Print | Product List | Glossary On
Versions: 1 2 3 4 5 6 7 8 9 10 11 12 13 14 15 16 17 18 19 20 21 22 23 24 25 26 27 28 29 30 31 32 33 34 35 36 37 38 39 40 41 42 43 44 45 46 47 48 49 50
000
ASUS43 KFSD 240210
RWRSD

WEATHER ROUNDUP FOR SOUTH DAKOTA
NATIONAL WEATHER SERVICE SIOUX FALLS SD
800 PM CST THU FEB 23 2017

NOTE: "FAIR" INDICATES FEW OR NO CLOUDS BELOW 12,000 FEET WITH NO
SIGNIFICANT WEATHER AND/OR OBSTRUCTIONS TO VISIBILITY.


SDZ001>005-009-010-012>017-240300-
NORTHWEST AND NORTH CENTRAL SOUTH DAKOTA

CITY           SKY/WX    TMP DP  RH WIND       PRES   REMARKS
BUFFALO          N/A     27  24  89 NE18      29.94R WCI  14
FAITH            N/A     26  23  88 NE16      29.99R WCI  14
MOBRIDGE       CLOUDY    31  23  72 N14G25    29.99R WCI  21
$$

SDZ012>016-024>037-041>051-057-063-072>074-240300-
SOUTHWEST AND SOUTH CENTRAL SOUTH DAKOTA

CITY           SKY/WX    TMP DP  RH WIND       PRES   REMARKS
RAPID CTY ARPT FLURRIES  27  22  81 NE15      29.95R WCI  15
PIERRE         CLOUDY    28  20  71 NE20G26   29.95R WCI  15
CUSTER         LGT SNOW  18  13  80 NE12      29.81R WCI   5
ELLSWORTH AFB  FLURRIES  27  25  93 NE12      29.95  WCI  16
PHILIP         CLOUDY    29  22  75 NE15      29.97R WCI  18
PINE RIDGE     LGT SNOW  25  23  92 NE16G25   29.89R VSB 1   WCI  12
SPEARFISH      FLURRIES  25  23  93 NE3       29.95R
WINNER         LGT SNOW  27  24  89 N21       29.91R FOG     WCI  13
$$

SDZ004>011-016>023-039-040-240300-
NORTHEAST SOUTH DAKOTA

CITY           SKY/WX    TMP DP  RH WIND       PRES   REMARKS
ABERDEEN       CLOUDY    27  20  75 NE22G35   29.99F WCI  13
WATERTOWN      CLOUDY    25  21  85 NE28G35   29.89R WCI   9
BROOKINGS      CLOUDY    27  22  81 NE20G31   29.85  WCI  13
SISSETON         N/A     26  21  81 N25G32    29.99F WCI  11
$$

SDZ017-020-022-023-036>040-048>070-240300-
SOUTHEAST SOUTH DAKOTA

CITY           SKY/WX    TMP DP  RH WIND       PRES   REMARKS
SIOUX FALLS    LGT SNOW  28  27  96 NE22G29   29.84R VSB 3/4 WCI  14
HURON          CLOUDY    28  22  78 NE20      29.92R WCI  15
CHAMBERLAIN    CLOUDY    29  25  86 N15       29.93R WCI  18
MITCHELL       CLOUDY    30  24  78 N20G25    29.90R WCI  17
YANKTON        CLOUDY    28  27  93 N17G23    29.79F VSB 3/4 WCI  16
$$

ABBREVIATIONS USED IN REMARKS
   TC - TEMPERATURE IN CELSIUS
  WCI - WIND CHILL INDEX
   HX - HEAT INDEX
  VSB - VISIBILITY





USA.gov is the U.S. government's official web portal to all federal, state and local government web resources and services.